STARLINK-3997

operational
NORAD ID: 52609 Int'l Des: 2022-052 Owner: SPXS Country: US Constellation: starlink
LEOCIRCULAR

关于 STARLINK-3997

正在加载描述...

实时位置

正在加载3D地球...

即将过境

高度历史

Altitude vs Time

uPlot chart will show altitude changes over time

两行轨道根数

1 52609U 22052M 25251.60599126 -.00000447 00000-0 -10001-4 0 9999
2 52609 53.2184 16.4799 0000691 101.7304 258.3766 15.08845353183376
Epoch: Sep 8, 2025 • Age: 5 hours

当前状态

高度 544.4 km
速度 7.60 km/s
星下点 47.11°N, 143.05°W
发射日期 May 14, 2022
运行时间 3.3 years
类型 internet

技术详情

分类 Payload
质量 297.00 kg
干质量 275.00 kg
总质量 297.00 kg
长度 0.20 m
直径 2.80 m
跨度 9.00 m
形状 Box + pan
制造商 SPXS
平台类型 Starlink
阶段状态 In Orbit
所有者/国家 SPXS/US

大型星座

Loading constellations...